Retour au catalogue

FENGYUN 1C DEB

ActifSSO
NORAD 31229·DEBRIS·🇨🇳 China

Lancé May 10, 1999 depuis Taiyuan Satellite Launch Center

Loading…

Prochains Passages (prochaines 24 heures)

TLE

FraisSource: Space-Track

Époque: Sep 13, 2026, 10:49 UTC

1 31229U 99025BLK 26256.45123628  .00001776  00000-0  79231-3 0  9990
2 31229  98.8555 338.2902 0052257 225.9924 133.6941 14.23343634999906

Suivez FENGYUN 1C DEB en temps réel avec AllMySat

Download on the App Store